Weather History for Maple Lake, MN

Change the Weather History Date:

Monday, September 10, 2012

  Actual Average (KSTC) Record (KSTC)
Temperature  
Mean Temperature 66 °F 61 °F  
Max Temperature 82 °F 73 °F 106 °F (1931)
Min Temperature 51 °F 49 °F 30 °F (1917)
Degree Days  
Heating Degree Days 0 6  
Month to date heating degree days 43  
Since 1 July heating degree days 101  
Cooling Degree Days 2 2  
Month to date cooling degree days 20  
Year to date cooling degree days 449  
Growing Degree Days 16 (Base 50)    
Moisture  
Dew Point 49 °F    
Average Humidity 57    
Maximum Humidity 87    
Minimum Humidity 31    
Precipitation  
Precipitation 0.00 in 0.12 in 2.38 in (1900)
Month to date precipitation 1.30  
Year to date precipitation 20.88  
Snow  
Snow 0.00 in 0.00 in 0.00 in ()
Month to date snowfall 0.0  
Since 1 July snowfall 0.0  
Since 1 September snowfall 0.0  
Snow Depth -    
Sea Level Pressure  
Sea Level Pressure 29.94 in    
Wind  
Wind Speed 7 mph (South)    
Max Wind Speed 16 mph    
Max Gust Speed 29 mph    
Visibility 10 miles    
Events      
T = Trace of Precipitation, MM = Missing Value Source: NWS Daily Summary

Daily Weather History Graph

Daily Weather History Graph

Search for Another Location

Airport:

Trip Planner

Search our weather history database for the weather conditions in past years. The results will help you decide how hot, cold, wet, or windy it might be!

Date:

Astronomy

Sep. 10, 2012 Rise Set
Actual Time 6:49 AM CDT 7:35 PM CDT
Civil Twilight 6:19 AM CDT 8:05 PM CDT
Nautical Twilight 5:43 AM CDT 8:40 PM CDT
Astronomical Twilight 5:06 AM CDT 9:17 PM CDT
Moon 12:58 AM CDT (9/10) 4:16 PM CDT (9/10)
Length of Visible Light 13h 45m
Length of Day
12h 46m
Waning Crescent, 30% of the Moon is Illuminated
Sep 10
Waning Crescent
Sep 15
New
Sep 22
First Quarter
Sep 29
Full
Oct 8
Last Quarter

Hourly Weather History & Observations

Time (CDT) Temp. Dew Point Humidity Pressure Visibility Wind Dir Wind Speed Gust Speed Precip Events Conditions
12:14 AM 53.1 °F 49.3 °F 87% 30.09 in 10.0 mi South 3.5 mph - N/A   Clear
12:33 AM 54.0 °F 49.6 °F 85% 30.09 in 10.0 mi SSE 3.5 mph - N/A   Clear
12:54 AM 54.5 °F 49.3 °F 83% 30.09 in 10.0 mi South 4.6 mph - N/A   Clear
1:13 AM 54.7 °F 49.1 °F 81% 30.08 in 10.0 mi SSE 4.6 mph - N/A   Clear
1:34 AM 54.5 °F 48.9 °F 81% 30.08 in 10.0 mi South 4.6 mph - N/A   Clear
1:54 AM 54.3 °F 48.6 °F 81% 30.08 in 10.0 mi SSE 4.6 mph - N/A   Clear
2:14 AM 53.6 °F 48.4 °F 82% 30.08 in 10.0 mi SSE 4.6 mph - N/A   Clear
2:34 AM 53.1 °F 48.2 °F 84% 30.07 in 10.0 mi SSE 3.5 mph - N/A   Clear
2:54 AM 52.7 °F 48.4 °F 85% 30.07 in 10.0 mi SSE 3.5 mph - N/A   Clear
3:13 AM 53.1 °F 48.2 °F 84% 30.07 in 10.0 mi SSE 4.6 mph - N/A   Clear
3:34 AM 52.9 °F 47.7 °F 82% 30.06 in 10.0 mi SSE 6.9 mph - N/A   Clear
3:54 AM 53.1 °F 47.7 °F 82% 30.06 in 10.0 mi SSE 5.8 mph - N/A   Clear
4:14 AM 52.7 °F 47.5 °F 82% 30.05 in 10.0 mi SSE 5.8 mph - N/A   Clear
4:34 AM 52.7 °F 47.3 °F 82% 30.05 in 10.0 mi South 5.8 mph - N/A   Clear
4:54 AM 52.2 °F 47.3 °F 83% 30.04 in 10.0 mi SSE 5.8 mph - N/A   Clear
5:34 AM 52.2 °F 47.3 °F 83% 30.04 in 10.0 mi SSE 5.8 mph - N/A   Clear
5:54 AM 52.0 °F 46.9 °F 83% 30.03 in 10.0 mi SSE 5.8 mph - N/A   Clear
6:14 AM 51.8 °F 46.8 °F 83% 30.03 in 10.0 mi SSE 5.8 mph - N/A   Clear
6:34 AM 51.4 °F 46.8 °F 84% 30.02 in 10.0 mi South 6.9 mph - N/A   Clear
6:54 AM 51.4 °F 46.6 °F 83% 30.02 in 10.0 mi SSE 6.9 mph - N/A   Clear
7:14 AM 51.8 °F 46.8 °F 83% 30.03 in 10.0 mi SSE 4.6 mph - N/A   Clear
7:34 AM 52.7 °F 47.3 °F 82% 30.03 in 10.0 mi SSE 5.8 mph - N/A   Clear
7:54 AM 54.1 °F 47.8 °F 79% 30.02 in 10.0 mi SSE 4.6 mph - N/A   Clear
8:14 AM 55.9 °F 48.6 °F 76% 30.02 in 10.0 mi SSE 4.6 mph - N/A   Clear
8:34 AM 58.1 °F 49.1 °F 72% 30.02 in 10.0 mi South 4.6 mph - N/A   Clear
8:54 AM 60.3 °F 50.0 °F 69% 30.02 in 10.0 mi South 8.1 mph - N/A   Clear
9:14 AM 62.1 °F 50.0 °F 65% 30.01 in 10.0 mi South 9.2 mph - N/A   Clear
9:34 AM 63.0 °F 50.0 °F 63% 30.01 in 10.0 mi South 6.9 mph - N/A   Clear
9:54 AM 64.9 °F 50.5 °F 60% 30.00 in 10.0 mi South 10.4 mph - N/A   Clear
10:14 AM 66.6 °F 50.0 °F 55% 30.00 in 10.0 mi South 10.4 mph 20.7 mph N/A   Clear
10:34 AM 68.7 °F 50.9 °F 53% 29.99 in 10.0 mi South 9.2 mph 19.6 mph N/A   Clear
10:54 AM 69.1 °F 50.7 °F 52% 29.98 in 10.0 mi South 10.4 mph 20.7 mph N/A   Clear
11:14 AM 71.4 °F 50.5 °F 48% 29.98 in 10.0 mi South 15.0 mph 20.7 mph N/A   Clear
11:33 AM 72.1 °F 49.1 °F 44% 29.97 in 10.0 mi South 12.7 mph 23.0 mph N/A   Clear
11:54 AM 73.0 °F 50.0 °F 44% 29.97 in 10.0 mi South 9.2 mph 20.7 mph N/A   Clear
12:14 PM 73.9 °F 50.2 °F 43% 29.96 in 10.0 mi South 12.7 mph 18.4 mph N/A   Clear
12:33 PM 75.2 °F 50.2 °F 41% 29.95 in 10.0 mi SSE 13.8 mph 20.7 mph N/A   Clear
12:54 PM 75.9 °F 47.8 °F 37% 29.93 in 10.0 mi South 13.8 mph 23.0 mph N/A   Clear
1:14 PM 76.5 °F 47.7 °F 36% 29.93 in 10.0 mi South 13.8 mph 25.3 mph N/A   Clear
1:33 PM 77.9 °F 48.2 °F 35% 29.92 in 10.0 mi South 13.8 mph 24.2 mph N/A   Clear
2:14 PM 79.9 °F 48.2 °F 33% 29.89 in 10.0 mi South 15.0 mph 24.2 mph N/A   Clear
2:34 PM 80.2 °F 48.2 °F 32% 29.88 in 10.0 mi South 10.4 mph 23.0 mph N/A   Clear
2:53 PM 80.1 °F 47.3 °F 32% 29.87 in 10.0 mi South 16.1 mph 28.8 mph N/A   Clear
3:14 PM 80.4 °F 48.4 °F 32% 29.86 in 10.0 mi South 15.0 mph 23.0 mph N/A   Clear
3:34 PM 81.7 °F 48.2 °F 31% 29.86 in 10.0 mi South 11.5 mph 20.7 mph N/A   Clear
3:54 PM 82.2 °F 48.4 °F 31% 29.85 in 10.0 mi South 12.7 mph 20.7 mph N/A   Clear
4:14 PM 81.5 °F 47.8 °F 31% 29.85 in 10.0 mi SSE 10.4 mph 23.0 mph N/A   Clear
4:34 PM 81.5 °F 48.4 °F 31% 29.84 in 10.0 mi South 12.7 mph 21.9 mph N/A   Clear
4:54 PM 81.5 °F 48.9 °F 32% 29.83 in 10.0 mi South 10.4 mph 18.4 mph N/A   Clear
5:13 PM 81.5 °F 48.7 °F 32% 29.82 in 10.0 mi South 11.5 mph 23.0 mph N/A   Clear
5:34 PM 80.1 °F 49.3 °F 34% 29.82 in 10.0 mi SSE 8.1 mph 18.4 mph N/A   Clear
5:54 PM 80.1 °F 49.3 °F 34% 29.81 in 10.0 mi South 8.1 mph 19.6 mph N/A   Clear
6:14 PM 78.8 °F 48.7 °F 35% 29.80 in 10.0 mi SSE 10.4 mph 18.4 mph N/A   Clear
6:34 PM 77.4 °F 48.7 °F 36% 29.80 in 10.0 mi SSE 9.2 mph 16.1 mph N/A   Clear
6:54 PM 76.1 °F 49.1 °F 39% 29.80 in 10.0 mi SSE 6.9 mph - N/A   Clear
7:13 PM 74.5 °F 49.3 °F 41% 29.81 in 10.0 mi SSE 5.8 mph - N/A   Clear
7:34 PM 72.3 °F 50.0 °F 45% 29.81 in 10.0 mi South 4.6 mph - N/A   Clear
7:54 PM 71.2 °F 50.0 °F 47% 29.81 in 10.0 mi South 5.8 mph - N/A   Clear
8:13 PM 71.1 °F 50.0 °F 47% 29.81 in 10.0 mi South 5.8 mph - N/A   Clear
8:34 PM 71.1 °F 49.6 °F 47% 29.81 in 10.0 mi South 5.8 mph - N/A   Clear
8:54 PM 71.1 °F 49.3 °F 46% 29.81 in 10.0 mi South 6.9 mph - N/A   Clear
9:14 PM 70.9 °F 49.3 °F 46% 29.82 in 10.0 mi South 6.9 mph - N/A   Clear
9:34 PM 70.3 °F 49.3 °F 47% 29.81 in 10.0 mi SSE 6.9 mph - N/A   Clear
9:54 PM 69.8 °F 49.3 °F 48% 29.81 in 10.0 mi South 5.8 mph - N/A   Clear
10:14 PM 69.1 °F 49.3 °F 49% 29.81 in 10.0 mi SSE 5.8 mph - N/A   Clear
10:34 PM 68.5 °F 49.8 °F 51% 29.81 in 10.0 mi SSE 5.8 mph - N/A   Clear
10:53 PM 68.0 °F 50.0 °F 52% 29.81 in 10.0 mi South 6.9 mph - N/A   Clear
11:14 PM 68.0 °F 50.0 °F 52% 29.81 in 10.0 mi SSE 5.8 mph - N/A   Clear
11:53 PM 68.0 °F 50.0 °F 52% 29.80 in 10.0 mi South 6.9 mph - N/A   Clear